Regional Weather Roundup
Issued by NWS

Home | Current Version | Previous Version | Text Only | Print | Product List | Glossary Off
Versions: 1 2 3 4 5 6 7 8 9 10 11 12 13 14 15 16 17 18 19 20 21 22 23 24 25 26 27 28 29 30 31 32 33 34 35 36 37 38 39 40 41 42 43 44 45 46 47 48 49 50

000
ASUS45 KCYS 251710
RWRWY

WYOMING REGIONAL WEATHER ROUNDUP
NATIONAL WEATHER SERVICE CHEYENNE WY
1000 AM MST SAT FEB 25 2017

NOTE:  "FAIR" INDICATES FEW OR NO CLOUDS BELOW 12,000 FEET
WITH NO SIGNIFICANT WEATHER AND/OR OBSTRUCTIONS TO VISIBILITY.

WYZ001-251800-
YELLOWSTONE NATIONAL PARK

CITY           SKY/WX    TMP DP  RH WIND       PRES   REMARKS
LK YELLOWSTONE   N/A      9   1  70 W8        29.80F WCI  -3
W YELLOWSTONE  NOT AVBL

$$
WYZ002>013-054>058-071-098>099-251800-
NORTHERN WYOMING

CITY           SKY/WX    TMP DP  RH WIND       PRES   REMARKS
JACKSON        FLURRIES  12   9  85 SE10      29.91F WCI  -1
CODY           FAIR      27   3  35 W15G25    29.83F WCI  15
GREYBULL       PTSUNNY   26  19  74 SE9       29.88F WCI  17
WORLAND        PTSUNNY   23  17  78 CALM      29.88F
SHERIDAN       CLOUDY    24  18  77 MISG      29.85F
BUFFALO        CLOUDY    22  15  75 S10       29.81F WCI  11
GILLETTE       FAIR      24  17  74 W10       29.84F WCI  14
HULETT         PTSUNNY   28  19  69 MISG      29.84F
NEWCASTLE      PTSUNNY   21  16  79 SW3       29.88F

$$
WYZ014>020-022>026-101>103-251800-
CENTRAL WYOMING

CITY           SKY/WX    TMP DP  RH WIND       PRES   REMARKS
BIG PINEY      CLOUDY    -1  -8  72 CALM      29.92F
PINEDALE       FAIR       0  -6  78 NW5       29.92F WCI -10
DUBOIS         FAIR      12   0  57 NW17G25   29.80F WCI  -5
LANDER         FAIR       8   1  73 SW5       29.87F WCI   0
RIVERTON       FAIR      14   1  56 W10       29.88F WCI   1
CASPER         FAIR      15   6  67 SW23      29.87F WCI  -3
DOUGLAS        FAIR      11   7  84 CALM      29.89F

$$
WYZ021-027>030-104>119-251800-
SOUTHERN WYOMING

CITY           SKY/WX    TMP DP  RH WIND       PRES   REMARKS
EVANSTON       PTSUNNY   10   4  76 SW12      29.95S WCI  -5
FORT BRIDGER   FAIR      15   7  72 SW13      29.96F WCI   1
ROCK SPRINGS   FAIR      11   1  64 W7        29.94S WCI   0
DIXON            N/A     14   8  75 CALM      29.99F
RAWLINS        FAIR      13   4  67 SW18G28   29.88F WCI  -4
SARATOGA       PTSUNNY   18   5  57 SW8       29.92S WCI   7
LARAMIE        PTSUNNY   15   2  56 SW17      29.83F WCI  -1
CHEYENNE       FAIR      20   3  48 SW17G23   29.86S WCI   5
TORRINGTON     FAIR      12   6  77 CALM      29.93F
PINE BLUFFS    FAIR      23  10  58 W15G26    29.93S WCI  10

$$



USA.gov is the U.S. government's official web portal to all federal, state and local government web resources and services.